Regional Weather Roundup
Issued by NWS

Home | Current Version | Previous Version | Text Only | Print | Product List | Glossary On
Versions: 1 2 3 4 5 6 7 8 9 10 11 12 13 14 15 16 17 18 19 20 21 22 23 24 25 26 27 28 29 30 31 32 33 34 35 36 37 38 39 40 41 42 43 44 45 46 47 48 49 50
000
ASUS43 KLMK 271210
RWRKY
KENTUCKY REGIONAL WEATHER ROUNDUP
NATIONAL WEATHER SERVICE LOUISVILLE KY
800 AM EDT SAT MAY 27 2017

NOTE "FAIR" INDICATES FEW OR NO CLOUDS BELOW 12,000 FEET
WITH NO SIGNIFICANT WEATHER AND/OR OBSTRUCTIONS TO VISIBILITY.

KYZ001>023-026-027-061>063-070>075-271300-
WESTERN AND SOUTH CENTRAL KENTUCKY

CITY           SKY/WX    TMP DP  RH WIND       PRES   REMARKS
PADUCAH        TSTM      71  67  87 S10       29.84F
HENDERSON      CLOUDY    69  68  96 CALM      29.89R
OWENSBORO      PTSUNNY   70  67  90 CALM      29.90R
HOPKINSVILLE   CLOUDY    71  66  84 SW5       29.92R
BOWLING GREEN  CLOUDY    74  65  73 SW8       29.92R
GLASGOW        CLOUDY    72  63  73 SW3       29.93R
$$

KYZ024-025-028>034-038-045-046-053-271300-
NORTH CENTRAL KENTUCKY

CITY           SKY/WX    TMP DP  RH WIND       PRES   REMARKS
LOUISVILLE/SDF CLOUDY    74  68  81 W7        29.88R
LOUISVILLE/LOU CLOUDY    74  70  87 SW5       29.89R
FORT KNOX      PTSUNNY   72  66  83 SW3       29.89R
$$

KYZ035>037-039>044-047>052-055>060-089>105-271300-
NORTHEAST KENTUCKY

CITY           SKY/WX    TMP DP  RH WIND       PRES   REMARKS
LEXINGTON      CLOUDY    71  62  73 SW8       29.90R
COVINGTON      PTSUNNY   71  66  84 W5        29.87R
FRANKFORT      CLOUDY    71  63  75 SW5       29.88R
$$

KYZ054-064>069-076>088-106>120-271300-
SOUTHEAST KENTUCKY

CITY           SKY/WX    TMP DP  RH WIND       PRES   REMARKS
JACKSON        CLOUDY    71  61  70 CALM      29.93R
LONDON         CLOUDY    72  59  63 SW8       29.94R
SOMERSET       CLOUDY    68  59  73 S3        29.95R
MIDDLESBORO    CLOUDY    65  64  94 CALM      29.97S
MONTICELLO     CLOUDY    72  64  76 W9        29.96R
$$





USA.gov is the U.S. government's official web portal to all federal, state and local government web resources and services.